STARLINK-35032, 65382

Orbit data source: Space-Track

STARLINK-35032, 65382 is a payload satellite owned by SpaceX/Seattle (US) in SSO that was launched on Sat, 30 Aug 2025 UTC via an FALCON 9 launch vehicle from the Air Force Western Test Range (AFWTR). Payload-class satellites include a variety of spacecraft equipped with specific instruments for various scientific and technological missions. These include communications satellites like Starlink; space stations such as the ISS; scientific satellites like the Hubble; Earth observation satellites from companies like Planet Labs, Umbra, and HawkEye 360; GPS; miniature CubeSats for education and research; and military/defense satellites.

Loading next visibility...
Identifier
65382, 2025-191D
Orbit
SSO
Country
Flag of USUS
Related business
Manufacturer
SpaceX/Seattle
Mission
Operational Commercial Communications
Bus & Motor
STARLINK V2MO, Unknown motor
Mass
575 kg wet, ~530 kg dry
Launch date (UTC)
2025-08-30 (7 months ago)
Launch vehicle
FALCON 9
Launch site
Air Force Western Test Range (AFWTR)
Object type
Payload
Rocket body
Debris
Shape & HBR
Box + 2 Pan, 17.7 m
Radar Cross Section
36.964 m², Large (>1 m²)

Expand to show TLE details & history
Last TLE update: 14 hours ago

TLE from 14 hours ago
0 STARLINK-35032
1 65382U 25191D   26093.64476627  .00012617  00000-0  87671-3 0  9993
2 65382  97.6029 326.1098 0002966  82.1059 278.0504 15.05664217 34028
Epoch: 2026-04-03T15:28Z
TLE epoch observation values (Epoch: 2026-04-03T15:28:27.805Z)
Latitude
-0.00007°
Longitude
-97.98197°
Altitude
552.246 km
Speed
7.586 km/s
True Right ascension
21h 44m 26s
True Declination
0° 00' 00"
Sunlit
Object was in daylight at epoch
Visualization orbit readout
Latitude
Unknown
Longitude
Unknown
Altitude
Unknown
Speed
Unknown
Apparent Right ascension
Unknown
Apparent Declination
Unknown
Sunlit
N/A
Visualization observer readout
Local Sidereal Time
11:23:08
Azimuth
Unknown
Elevation
Unknown
Doppler factor
Unknown
Orbital elements
Apogee altitude
548.515 km
Perigee altitude
544.407 km
Semi-major axis
6,924.598 km
Eccentricity
0.0003
Inclination
97.6029°
RAAN
326.1098°
Arg. of periapsis
82.1059°
True anomaly
278.01675°
Mean anomaly
278.0504°
Eccentric anomaly
278.03357°
Mean motion
3.76662 °/min
Orbital period
95.58 mins
BSTAR
0.00087671
Loading maneuver chart data...
Computing Atmospheric mass density...
Loading historical data...
Loading historical data...
Loading historical data...
Loading historical data...
Loading historical data...
Loading historical data...
Loading historical data...

Documentation

Showing up to 5 results
|